Location: Newark
(0.5300°S, 127.4800°E)
Time: 19:43:47
(UTC+00:00)

Vanguard 2 Rocket - All Passes

Search period start: 18 October 2019 00:00
Search period end: 28 October 2019 00:00
Orbit: 554 x 3327 km, 32.9° (Epoch: 17 October)

Date Brightness Start Highest point End Pass type
(mag) Time Alt. Az. Time Alt. Az. Time Alt. Az.
18 Oct - 01:36:55 10° WNW 01:51:16 25° NNW 02:06:05 10° NNE daylight
18 Oct - 04:05:42 10° NW 04:15:27 15° N 04:23:50 10° NNE daylight
18 Oct - 06:27:40 10° NNW 06:37:28 20° NNE 06:44:30 10° ENE daylight
18 Oct - 08:44:24 10° NW 08:54:49 49° NNE 09:00:48 10° ESE daylight
18 Oct - 11:02:20 10° W 11:08:12 28° SW 11:12:17 10° SSE visible
18 Oct - 20:02:32 10° SSW 20:11:26 47° SE 20:26:30 10° ENE visible
18 Oct - 22:15:16 10° WSW 22:27:41 67° NNW 22:47:10 10° NE daylight
19 Oct - 00:33:27 10° W 00:47:49 31° NNW 01:04:38 10° NNE daylight
19 Oct - 03:00:00 10° NW 03:11:35 17° N 03:22:10 10° NNE daylight
19 Oct - 05:24:57 10° NNW 05:35:12 18° N 05:43:04 10° NE daylight
19 Oct - 07:42:43 10° NW 07:54:14 36° NNE 08:01:11 10° E daylight
19 Oct - 10:00:13 10° WNW 10:08:57 58° SW 10:14:06 10° SE visible
19 Oct - 19:04:16 10° SSW 19:11:15 29° SE 19:22:09 10° E visible
19 Oct - 21:15:30 10° SW 21:26:10 86° NW 21:44:31 10° NE daylight
19 Oct - 23:31:18 10° W 23:44:49 39° NNW 00:02:51 10° NE daylight
20 Oct - 01:54:42 10° NW 02:07:32 20° NNW 02:20:23 10° NNE daylight
20 Oct - 04:21:24 10° NNW 04:32:10 17° N 04:41:01 10° NE daylight
20 Oct - 06:40:44 10° NNW 06:53:02 29° NNE 07:00:59 10° ENE daylight
20 Oct - 08:58:13 10° NW 09:09:19 84° NE 09:15:25 10° ESE daylight
20 Oct - 11:18:49 10° WSW 11:22:08 14° SW 11:24:52 10° S visible
20 Oct - 18:07:03 10° S 18:11:17 15° SE 18:16:48 10° ESE visible
20 Oct - 20:16:18 10° SW 20:25:19 70° SE 20:41:27 10° ENE visible
20 Oct - 22:30:15 10° W 22:42:23 49° NNW 23:00:45 10° NE daylight
21 Oct - 00:50:30 10° WNW 01:03:41 24° NNW 01:18:28 10° NNE daylight
21 Oct - 03:17:05 10° NW 03:28:26 17° N 03:38:30 10° NE daylight
21 Oct - 05:38:24 10° NNW 05:51:09 25° NNE 06:00:07 10° ENE daylight
21 Oct - 07:56:09 10° NW 08:09:05 58° NNE 08:16:16 10° ESE daylight
21 Oct - 10:15:22 10° W 10:22:51 31° SW 10:27:42 10° SSE visible
21 Oct - 19:17:39 10° SSW 19:25:06 45° SE 19:37:58 10° ENE visible
21 Oct - 21:30:01 10° WSW 21:40:34 62° NNW 21:58:21 10° NE daylight
21 Oct - 23:47:36 10° WNW 00:00:17 29° NNW 00:16:23 10° NNE daylight
22 Oct - 02:12:26 10° NW 02:24:16 18° N 02:35:46 10° NNE daylight
22 Oct - 04:35:41 10° NNW 04:48:31 21° NNE 04:58:26 10° ENE daylight
22 Oct - 06:53:59 10° NW 07:08:13 43° NNE 07:16:37 10° E daylight
22 Oct - 09:12:37 10° WNW 09:23:25 58° SW 09:29:30 10° SE daylight
22 Oct - 18:19:36 10° SSW 18:25:19 26° SE 18:34:00 10° E visible
22 Oct - 20:30:27 10° WSW 20:39:26 82° NW 20:55:42 10° NE visible
22 Oct - 22:45:52 10° W 22:57:30 35° NNW 23:14:10 10° NE daylight
23 Oct - 01:08:07 10° NW 01:20:06 20° N 01:32:59 10° NNE daylight
23 Oct - 03:32:34 10° NNW 03:45:10 19° N 03:55:51 10° NE daylight
23 Oct - 05:51:42 10° NW 06:06:40 35° NNE 06:16:21 10° E daylight
23 Oct - 08:10:01 10° NW 08:23:31 90° ESE 08:30:47 10° SE daylight
23 Oct - 10:31:45 10° W 10:36:45 17° SW 10:40:32 10° S visible
23 Oct - 17:23:03 10° SSE 17:25:40 12° SE 17:28:47 10° ESE visible
23 Oct - 19:31:26 10° SW 19:38:59 71° SE 19:52:51 10° ENE visible
23 Oct - 21:45:05 10° W 21:55:22 44° NNW 22:11:51 10° NE daylight
24 Oct - 00:04:39 10° WNW 00:16:18 22° NNW 00:30:16 10° NNE daylight
24 Oct - 02:29:06 10° NNW 02:41:11 18° N 02:52:31 10° NE daylight
24 Oct - 04:49:18 10° NNW 05:04:25 29° NNE 05:15:16 10° ENE daylight
24 Oct - 07:07:31 10° NW 07:22:58 65° NNE 07:31:34 10° ESE daylight
24 Oct - 09:27:49 10° WNW 09:37:16 34° SW 09:43:06 10° SSE visible
24 Oct - 18:32:56 10° SSW 18:39:09 43° SE 18:49:47 10° ENE visible
24 Oct - 20:45:03 10° WSW 20:53:56 56° NNW 21:09:28 10° NE visible
24 Oct - 23:02:14 10° WNW 23:13:06 26° NNW 23:27:39 10° NNE daylight
25 Oct - 01:25:31 10° NW 01:36:56 18° N 01:48:44 10° NE daylight
25 Oct - 03:46:51 10° NNW 04:01:28 24° NNE 04:13:14 10° ENE daylight
25 Oct - 06:05:04 10° NW 06:21:45 50° NNE 06:31:48 10° E daylight
25 Oct - 08:24:30 10° WNW 08:37:33 58° SW 08:44:49 10° SE daylight
25 Oct - 17:35:03 10° S 17:39:40 23° SE 17:46:20 10° E visible
25 Oct - 19:45:39 10° WSW 19:53:10 76° NNW 20:07:03 10° NE visible
25 Oct - 22:00:50 10° WNW 22:10:37 31° NNW 22:25:12 10° NE daylight
26 Oct - 00:22:09 10° NW 00:32:48 18° N 00:44:58 10° NNE daylight
26 Oct - 02:44:19 10° NNW 02:57:53 21° NNE 03:10:05 10° NE daylight
26 Oct - 05:02:43 10° NW 05:19:50 40° NNE 05:31:20 10° E daylight
26 Oct - 07:21:28 10° NW 07:37:18 86° SW 07:45:59 10° SE daylight
26 Oct - 09:44:08 10° W 09:51:08 20° SW 09:56:07 10° S visible
26 Oct - 18:46:44 10° SW 18:53:04 73° SE 19:04:37 10° ENE visible
26 Oct - 21:00:15 10° W 21:08:52 38° NNW 21:22:54 10° NE daylight
26 Oct - 23:19:22 10° NW 23:29:12 20° N 23:41:31 10° NNE daylight
27 Oct - 01:41:46 10° NNW 01:53:49 19° N 02:05:54 10° NE daylight
27 Oct - 04:00:31 10° NNW 04:17:16 32° NNE 04:29:58 10° E daylight
27 Oct - 06:18:41 10° NW 06:36:24 71° NNE 06:46:38 10° ESE daylight
27 Oct - 08:39:45 10° WNW 08:51:23 37° SW 08:58:24 10° SSE daylight
27 Oct - 17:48:18 10° SSW 17:53:31 41° SE 18:02:05 10° ENE visible
27 Oct - 20:00:22 10° WSW 20:07:45 49° NNW 20:20:45 10° NE visible
27 Oct - 22:17:22 10° WNW 22:26:19 22° NNW 22:38:34 10° NNE daylight
